TimeCET,TemperatureF,Dew PointF,Humidity,Sea Level PressureIn,VisibilityMPH,Wind Direction,Wind SpeedMPH,Gust SpeedMPH,PrecipitationIn,Events,Conditions,WindDirDegrees,DateUTC
12:00 AM,22,20,86,30.24,,SSW,4.5,,,,,210,2014-02-04 23:00:00
1:00 AM,22,20,88,30.24,,SW,4.5,,,,,220,2014-02-05 00:00:00
2:00 AM,15,13,87,30.24,,SW,2.2,,,,,230,2014-02-05 01:00:00
3:00 AM,20,18,88,30.22,,SE,4.5,,,,,140,2014-02-05 02:00:00
4:00 AM,19,17,87,30.21,,SSE,4.5,,,,,160,2014-02-05 03:00:00
5:00 AM,19,17,89,30.20,,Calm,Calm,,,,,,2014-02-05 04:00:00
6:00 AM,19,17,91,30.20,,South,4.5,,,,,180,2014-02-05 05:00:00
7:00 AM,12,9,81,30.20,,Calm,Calm,,,,,,2014-02-05 06:00:00
8:00 AM,12,9,83,30.20,,East,4.5,,,,,100,2014-02-05 07:00:00
9:00 AM,12,9,82,30.20,,East,2.2,,,,,100,2014-02-05 08:00:00
10:00 AM,17,14,84,30.19,,Calm,Calm,,,,,,2014-02-05 09:00:00
11:00 AM,24,21,83,30.17,,Calm,Calm,,,,,,2014-02-05 10:00:00
12:00 PM,31,22,57,30.14,,Calm,Calm,,,,,,2014-02-05 11:00:00
1:00 PM,34,22,50,30.11,,NE,2.2,,,,,40,2014-02-05 12:00:00
2:00 PM,36,23,46,30.09,,NNE,4.5,,,,,30,2014-02-05 13:00:00
3:00 PM,36,22,45,30.07,,NNE,2.2,,,,,30,2014-02-05 14:00:00
4:00 PM,35,22,46,30.05,,NNE,4.5,,,,,30,2014-02-05 15:00:00
5:00 PM,31,20,53,30.05,,NNE,6.7,,,,,30,2014-02-05 16:00:00
6:00 PM,30,21,58,30.04,,ENE,4.5,,,,,70,2014-02-05 17:00:00
7:00 PM,26,20,71,30.04,,East,4.5,,,,,80,2014-02-05 18:00:00
8:00 PM,24,19,74,30.04,,East,6.7,,,,,80,2014-02-05 19:00:00
9:00 PM,24,20,79,30.02,,East,8.9,,,,,90,2014-02-05 20:00:00
10:00 PM,24,19,73,30.03,,Calm,Calm,,,,,,2014-02-05 21:00:00
11:00 PM,23,18,76,30.01,,ENE,2.2,,,,,60,2014-02-05 22:00:00